This is the latest recevied weather packets stored in our database for station/object KX4O-13. If no packets are shown the sender has not sent any weather packets the latest 10 day(s).
| Time | Temp. | Humidity | Pressure | Rain* | Wind** | Luminosity | Snow |
|---|---|---|---|---|---|---|---|
| 1777685459 | 14.44° C | 52% | 1010.9 hPa | 0 mm | - | 0 W/m² | - |
| 1777685159 | 14.44° C | 51% | 1010.7 hPa | 0 mm | - | 0 W/m² | - |
| 1777684859 | 15° C | 50% | 1010.6 hPa | 0 mm | - | 0 W/m² | - |
| 1777684559 | 15° C | 49% | 1010.5 hPa | 0 mm | - | 0 W/m² | - |
| 1777684259 | 15° C | 48% | 1010.3 hPa | 0 mm | - | 0 W/m² | - |
| 1777683959 | 15° C | 48% | 1010.2 hPa | 0 mm | - | 0 W/m² | - |
| 1777683659 | 15° C | 48% | 1010.1 hPa | 0 mm | - | 0 W/m² | - |
| 1777683359 | 15° C | 48% | 1010 hPa | 0 mm | - | 0 W/m² | - |
| 1777683059 | 15° C | 48% | 1009.9 hPa | 0 mm | - | 0 W/m² | - |
| 1777682759 | 14.44° C | 49% | 1009.8 hPa | 0 mm | - | 0 W/m² | - |
| 1777682459 | 14.44° C | 53% | 1009.8 hPa | 0 mm | - | 0 W/m² | - |
| 1777682159 | 13.89° C | 53% | 1009.8 hPa | 0 mm | - | 0 W/m² | - |
| 1777681859 | 13.89° C | 53% | 1009.7 hPa | 0 mm | - | 0 W/m² | - |
| 1777681559 | 13.89° C | 55% | 1009.7 hPa | 0 mm | - | 0 W/m² | - |
| 1777681259 | 13.89° C | 52% | 1009.7 hPa | 0 mm | - | 0 W/m² | - |
| 1777680959 | 13.89° C | 53% | 1009.7 hPa | 0 mm | - | 0 W/m² | - |
| 1777680659 | 14.44° C | 51% | 1009.7 hPa | 0 mm | - | 0 W/m² | - |
| 1777680359 | 15° C | 50% | 1009.7 hPa | 0 mm | - | 0 W/m² | - |
| 1777680059 | 15° C | 48% | 1009.7 hPa | 0 mm | - | 5 W/m² | - |
| 1777679759 | 15° C | 42% | 1009.8 hPa | 0 mm | - | 5 W/m² | - |
| 1777679459 | 15.56° C | 42% | 1009.8 hPa | 0 mm | - | 11 W/m² | - |
| 1777679159 | 16.11° C | 42% | 1009.6 hPa | 0 mm | - | 11 W/m² | - |
| 1777678859 | 16.11° C | 42% | 1009.7 hPa | 0 mm | - | 12 W/m² | - |
| 1777678559 | 16.67° C | 42% | 1009.6 hPa | 0 mm | - | 16 W/m² | - |
| 1777678259 | 16.67° C | 40% | 1009.7 hPa | 0 mm | - | 14 W/m² | - |
* Rain latest hour (hover to see other rain measurements)
** Current wind speed in m/s (hover to see current wind gust speed)